Regional Weather Roundup
Issued by NWS Jackson, KY

Home | Current Version | Previous Version | Graphics & Text | Print | Product List | Glossary On
Versions: 1 2 3 4 5 6 7 8 9 10 11 12 13 14 15 16 17 18 19 20 21 22 23 24 25 26 27 28 29 30 31 32 33 34 35 36 37 38 39 40 41 42 43 44 45 46 47 48 49 50
000
ASUS43 KJKL 230810
RWRJKL

EAST KENTUCKY HOURLY WEATHER ROUNDUP
NATIONAL WEATHER SERVICE JACKSON KY
400 AM EDT SAT MAY 23 2015

NOTE: "FAIR" INDICATES FEW OR NO CLOUDS BELOW 12,000 FEET WITH
NO SIGNIFICANT WEATHER AND/OR OBSTRUCTIONS TO VISIBILITY.

* THESE REPORTS ARE NOT UNDER NWS QUALITY CONTROL AND MAY NOT
  REPORT WEATHER SUCH AS PRECIPITATION AND FOG.

KYZ079-080-083-085-087-088-110-112-115-119-120-230900
...EASTERN KENTUCKY...

CITY           SKY/WX    TMP DP  RH WIND       PRES   REMARKS
JACKSON        CLEAR     53  46  77 S3        30.32S
LONDON         CLEAR     48  43  82 CALM      30.32R
SOMERSET*      CLEAR     46  46 100 CALM      30.33R
MONTICELLO*    PTCLDY    47  47 100 CALM      30.34R
MIDDLESBORO*   PTCLDY    46  46  99 CALM      30.35S
HARLAN APT*    MOSUNNY   46  46 100 CALM      30.35S
HAZARD APT*    SUNNY     48  48 100 CALM      30.32S
BLACK MTN*       N/A     50  37  62 VRB1        N/A
PIKEVILLE APT* CLEAR     52  46  82 S5        30.33R
BIG SANDY*     SUNNY     53  47  80 S3        30.33R
MOREHEAD APT*  PTSUNNY   52  46  82 CALM      30.33S
$$

KYZ035-036-041-042-044-050-067-078-099-230900
...CENTRAL KENTUCKY...

CITY           SKY/WX    TMP DP  RH WIND       PRES   REMARKS
MT STERLING*   CLEAR     46  45  93 SW5       30.33R
FLEMING/MASON* CLEAR     50  46  87 S3        30.32S
DANVILLE*      CLEAR     46  45  93 CALM      30.33R
RICHMOND*      CLEAR     48  45  87 CALM      30.31R
LEXINGTON      CLEAR     50  45  83 SE3       30.31R
FRANKFORT      CLEAR     50  46  86 CALM      30.29S
$$

KYZ091>093-OHZ055-061-077-WVZ005-015-034-035-042-230900
...SOUTHERN OHIO/WEST VIRGINIA...

CITY           SKY/WX    TMP DP  RH WIND       PRES   REMARKS
COVINGTON      MOCLDY    53  47  79 CALM      30.29S
COLUMBUS       PTCLDY    52  34  50 CALM      30.32R
DAYTON         PTCLDY    52  38  58 E8        30.32R
WILMINGTON     CLEAR     52  39  61 E5        30.31R
HUNTINGTON     CLEAR     49  47  93 CALM      30.30S
CHARLESTON     CLEAR     50  47  89 SW3       30.32R
PINEVILLE*     CLEAR     44  44 100 MISG      30.40S
BECKLEY        MOCLDY    51  41  68 S5        30.35R
BLUEFIELD      PTCLDY    51  39  63 W6        30.36S
$$

VAZ002-007-008-TNZ017-027-036-066-071-230900
...SOUTHWEST VIRGINIA/EAST TENNESSEE...

CITY           SKY/WX    TMP DP  RH WIND       PRES   REMARKS
WISE*          PTCLDY    52  37  58 CALM      30.36F
JONESVILLE*    MOSUNNY   45  45 100 CALM      30.35S
ABINGDON*      MOCLDY    51  43  76 E6        30.35S
BRISTOL        PTCLDY    46  44  93 NE3       30.34R
KNOXVILLE      PTCLDY    50  47  89 E5        30.29S
OAK RIDGE      PTCLDY    51  47  86 CALM      30.31S
CROSSVILLE     CLEAR     50  46  86 CALM      30.31R
NASHVILLE      PTCLDY    52  50  93 S3        30.28S
$$

...KEY TO REMARKS...
VSB - VISIBILITY IN MILES
WCI - WIND CHILL INDEX
HX  - HEAT INDEX

$$


USA.gov is the U.S. government's official web portal to all federal, state and local government web resources and services.